When you browse on this site, cookies collect data to enhance your experience and personalize the content and advertising you see.
Visit our Privacy Policy to learn more. By continuing to use the site, you agree to this use of cookies and data.
  • En España
  • Lista de países
  • Para 7 días
  • Temperatura del agua
  • El tiempo en el mapa
  • Informadores
  • user-avatar
    Iniciar sesión

    Tiempo cada hora Faru

    Hoy, 28 Mayo, Jueves

    Tiempo Temperatura Precipitaciones Viento Presión Humedad
    00:00 +20°C° 0 mm 5 mps 762 mmHg 61%
    01:00 +20°C° 0 mm 5 mps 762 mmHg 58%
    02:00 +20°C° 0 mm 5 mps 762 mmHg 56%
    03:00 +20°C° 0 mm 5 mps 761 mmHg 56%
    04:00 +20°C° 0 mm 5 mps 761 mmHg 55%
    05:00 +20°C° 0 mm 5 mps 761 mmHg 55%
    06:00 +22°C° 0 mm 5 mps 761 mmHg 51%
    07:00 +25°C° 0 mm 5 mps 762 mmHg 47%
    08:00 +27°C° 0 mm 5 mps 762 mmHg 43%
    09:00 +28°C° 0 mm 4 mps 762 mmHg 39%
    10:00 +30°C° 0 mm 4 mps 762 mmHg 35%
    11:00 +33°C° 0 mm 4 mps 761 mmHg 31%
    12:00 +33°C° 0 mm 4 mps 761 mmHg 32%
    13:00 +33°C° 0 mm 4 mps 761 mmHg 32%
    14:00 +33°C° 0 mm 4 mps 760 mmHg 32%
    15:00 +32°C° 0 mm 4 mps 760 mmHg 37%
    16:00 +30°C° 0 mm 3 mps 759 mmHg 41%
    17:00 +28°C° 0 mm 3 mps 759 mmHg 45%
    18:00 +26°C° 0 mm 3 mps 760 mmHg 52%
    19:00 +24°C° 0 mm 2 mps 760 mmHg 59%
    20:00 +21°C° 0 mm 2 mps 761 mmHg 66%
    21:00 +21°C° 0 mm 2 mps 760 mmHg 68%
    22:00 +21°C° 0 mm 2 mps 760 mmHg 70%
    23:00 +20°C° 0 mm 3 mps 760 mmHg 71%

    Mañana, 29 Mayo, Viernes

    Tiempo Temperatura Precipitaciones Viento Presión Humedad
    00:00 +20°C° 0 mm 3 mps 760 mmHg 73%
    01:00 +20°C° 0 mm 3 mps 760 mmHg 74%
    02:00 +19°C° 0 mm 3 mps 759 mmHg 76%
    03:00 +20°C° 0 mm 3 mps 759 mmHg 73%
    04:00 +20°C° 0 mm 2 mps 759 mmHg 71%
    05:00 +20°C° 0 mm 2 mps 759 mmHg 69%
    06:00 +24°C° 0 mm 3 mps 759 mmHg 60%
    07:00 +26°C° 0 mm 3 mps 759 mmHg 51%
    08:00 +29°C° 0 mm 3 mps 759 mmHg 43%
    09:00 +30°C° 0 mm 3 mps 759 mmHg 40%
    10:00 +31°C° 0 mm 3 mps 759 mmHg 37%
    11:00 +34°C° 0 mm 3 mps 759 mmHg 34%
    12:00 +33°C° 0 mm 3 mps 758 mmHg 35%
    13:00 +33°C° 0 mm 3 mps 758 mmHg 37%
    14:00 +31°C° 0 mm 3 mps 758 mmHg 39%
    15:00 +30°C° 0 mm 3 mps 757 mmHg 42%
    16:00 +29°C° 0 mm 3 mps 757 mmHg 44%
    17:00 +29°C° 0 mm 3 mps 757 mmHg 47%
    18:00 +27°C° 0 mm 3 mps 757 mmHg 54%
    19:00 +25°C° 0 mm 3 mps 757 mmHg 60%
    20:00 +24°C° 0 mm 3 mps 757 mmHg 67%
    21:00 +22°C° 0 mm 3 mps 757 mmHg 67%
    22:00 +23°C° 0 mm 2 mps 757 mmHg 67%
    23:00 +23°C° 0 mm 1 mps 757 mmHg 66%

    Pasado mañana, 30 Mayo, Sábado

    Tiempo Temperatura Precipitaciones Viento Presión Humedad
    00:00 +23°C° 0 mm 1 mps 757 mmHg 69%
    01:00 +21°C° 0 mm 2 mps 757 mmHg 71%
    02:00 +21°C° 0 mm 2 mps 757 mmHg 73%
    03:00 +21°C° 0 mm 2 mps 757 mmHg 69%
    04:00 +20°C° 0 mm 2 mps 757 mmHg 66%
    05:00 +20°C° 0 mm 2 mps 756 mmHg 62%
    06:00 +24°C° 0 mm 2 mps 757 mmHg 53%
    07:00 +28°C° 0 mm 2 mps 757 mmHg 44%
    08:00 +31°C° 0 mm 2 mps 757 mmHg 34%
    09:00 +32°C° 0 mm 2 mps 757 mmHg 33%
    10:00 +33°C° 0 mm 3 mps 757 mmHg 32%
    11:00 +34°C° 0 mm 3 mps 757 mmHg 30%
    12:00 +34°C° 0 mm 3 mps 756 mmHg 30%
    13:00 +34°C° 0 mm 4 mps 756 mmHg 29%
    14:00 +34°C° 0 mm 4 mps 755 mmHg 29%
    15:00 +31°C° 0 mm 3 mps 755 mmHg 31%
    16:00 +30°C° 0 mm 3 mps 755 mmHg 32%
    17:00 +29°C° 0 mm 2 mps 755 mmHg 34%
    18:00 +27°C° 0 mm 2 mps 755 mmHg 36%
    19:00 +26°C° 0 mm 2 mps 756 mmHg 39%
    20:00 +24°C° 0 mm 2 mps 756 mmHg 41%
    21:00 +24°C° 0 mm 2 mps 756 mmHg 40%
    22:00 +23°C° 0 mm 2 mps 756 mmHg 38%
    23:00 +23°C° 0 mm 2 mps 756 mmHg 37%

    31 Mayo, Domingo

    Tiempo Temperatura Precipitaciones Viento Presión Humedad
    00:00 +22°C° 0 mm 3 mps 756 mmHg 36%
    01:00 +22°C° 0 mm 3 mps 755 mmHg 35%
    02:00 +21°C° 0 mm 4 mps 755 mmHg 34%
    03:00 +21°C° 0 mm 4 mps 755 mmHg 35%
    04:00 +22°C° 0 mm 5 mps 755 mmHg 36%
    05:00 +22°C° 0 mm 6 mps 755 mmHg 36%
    06:00 +23°C° 0 mm 6 mps 756 mmHg 40%
    07:00 +24°C° 0 mm 7 mps 756 mmHg 43%
    08:00 +27°C° 0 mm 7 mps 756 mmHg 46%
    09:00 +27°C° 0 mm 7 mps 756 mmHg 49%
    10:00 +28°C° 0 mm 6 mps 756 mmHg 52%
    11:00 +28°C° 0 mm 6 mps 757 mmHg 55%
    12:00 +28°C° 0 mm 6 mps 756 mmHg 57%
    13:00 +28°C° 0 mm 5 mps 756 mmHg 59%
    14:00 +28°C° 0 mm 5 mps 756 mmHg 60%
    15:00 +27°C° 0 mm 4 mps 756 mmHg 62%
    16:00 +26°C° 0 mm 3 mps 756 mmHg 65%
    17:00 +25°C° 0 mm 3 mps 756 mmHg 67%
    18:00 +24°C° 0 mm 2 mps 756 mmHg 75%
    19:00 +21°C° 0 mm 2 mps 757 mmHg 84%
    20:00 +19°C° 0 mm 2 mps 757 mmHg 92%
    21:00 +19°C° 0 mm 2 mps 757 mmHg 94%
    22:00 +19°C° 0 mm 2 mps 757 mmHg 96%
    23:00 +20°C° 0 mm 1 mps 757 mmHg 97%

    1 Junio, Lunes

    Tiempo Temperatura Precipitaciones Viento Presión Humedad
    00:00 +19°C° 0 mm 2 mps 757 mmHg 97%
    01:00 +19°C° 0 mm 2 mps 756 mmHg 97%
    02:00 +19°C° 0 mm 2 mps 756 mmHg 96%
    03:00 +19°C° 0 mm 2 mps 756 mmHg 95%
    04:00 +20°C° 0 mm 3 mps 756 mmHg 94%
    05:00 +20°C° 0 mm 3 mps 756 mmHg 93%
    06:00 +21°C° 0 mm 4 mps 757 mmHg 88%
    07:00 +22°C° 0 mm 4 mps 757 mmHg 83%
    08:00 +22°C° 0 mm 5 mps 757 mmHg 79%
    09:00 +23°C° 0 mm 5 mps 758 mmHg 77%
    10:00 +23°C° 0 mm 5 mps 758 mmHg 75%
    11:00 +25°C° 0 mm 5 mps 758 mmHg 73%
    12:00 +25°C° 0 mm 5 mps 758 mmHg 69%
    13:00 +26°C° 0 mm 5 mps 758 mmHg 66%
    14:00 +27°C° 0 mm 5 mps 757 mmHg 62%
    15:00 +26°C° 0 mm 5 mps 757 mmHg 65%
    16:00 +25°C° 0 mm 5 mps 757 mmHg 68%
    17:00 +23°C° 0 mm 5 mps 757 mmHg 72%
    18:00 +21°C° 0 mm 5 mps 757 mmHg 79%
    19:00 +20°C° 0 mm 5 mps 758 mmHg 87%
    20:00 +18°C° 0 mm 4 mps 758 mmHg 94%
    21:00 +18°C° 0 mm 4 mps 758 mmHg 92%
    22:00 +19°C° 0 mm 4 mps 758 mmHg 90%
    23:00 +19°C° 0 mm 4 mps 758 mmHg 88%

    2 Junio, Martes

    Tiempo Temperatura Precipitaciones Viento Presión Humedad
    00:00 +19°C° 0 mm 4 mps 758 mmHg 87%
    01:00 +19°C° 0 mm 4 mps 758 mmHg 85%
    02:00 +19°C° 0 mm 3 mps 758 mmHg 83%
    03:00 +19°C° 0 mm 3 mps 758 mmHg 82%
    04:00 +19°C° 0 mm 3 mps 758 mmHg 81%
    05:00 +20°C° 0 mm 2 mps 758 mmHg 80%
    06:00 +20°C° 0 mm 3 mps 758 mmHg 78%
    07:00 +20°C° 0 mm 3 mps 758 mmHg 77%
    08:00 +21°C° 0 mm 3 mps 758 mmHg 75%
    09:00 +22°C° 0 mm 3 mps 758 mmHg 73%
    10:00 +22°C° 0 mm 4 mps 758 mmHg 70%
    11:00 +23°C° 0 mm 4 mps 758 mmHg 68%
    12:00 +25°C° 0 mm 4 mps 758 mmHg 65%
    13:00 +26°C° 0 mm 5 mps 758 mmHg 62%
    14:00 +27°C° 0 mm 5 mps 757 mmHg 59%
    15:00 +26°C° 0 mm 5 mps 757 mmHg 60%
    16:00 +26°C° 0 mm 6 mps 757 mmHg 62%
    17:00 +26°C° 0 mm 6 mps 757 mmHg 64%
    18:00 +23°C° 0 mm 6 mps 757 mmHg 72%
    19:00 +21°C° 0 mm 5 mps 757 mmHg 80%
    20:00 +19°C° 0 mm 5 mps 757 mmHg 88%
    21:00 +18°C° 0 mm 4 mps 757 mmHg 90%
    22:00 +18°C° 0 mm 4 mps 757 mmHg 92%
    23:00 +17°C° 0 mm 3 mps 757 mmHg 94%
    Mostrar más